Location: Haliburton Scout Reserve
(45.0900°N, 78.3200°W)
Time: 16:33:35
(UTC-04:00)

JY1SAT - Pass Details

Date: 27 June 2024
Orbit: 536 x 549 km, 97.5° (Epoch: 11 July)

Event Time Altitude Azimuth Distance (km) Brightness Sun altitude
Exits shadow 22:59:06 - 207° (SSW) 2,045 ? -14.8°
Reaches altitude 10° 22:59:46 10° 213° (SSW) 1,818 ? -14.9°
Maximum altitude 23:02:55 23° 266° (W) 1,206 ? -15.2°
Drops below altitude 10° 23:06:06 10° 319° (NW) 1,835 ? -15.5°
Sets 23:08:36 0° 335° (NNW) 2,735 ? -15.7°
